Location: Newark
(11.4947°N, 0.1467°E)
Time: 01:51:24
(UTC+00:00)

Hubble Space Telescope - Visible Passes

Search period start: 17 November 2019 00:00
Search period end: 27 November 2019 00:00
Orbit: 536 x 540 km, 28.5° (Epoch: 16 November)

Date Brightness Start Highest point End Pass type
(mag) Time Alt. Az. Time Alt. Az. Time Alt. Az.
17 Nov 2.6 18:22:46 10° WNW 18:25:55 21° NNW 18:28:34 12° NNE visible
18 Nov 2.9 18:12:42 10° WNW 18:15:26 17° NNW 18:18:10 10° NNE visible
19 Nov 3.1 18:02:46 10° NW 18:04:58 14° NNW 18:07:11 10° NNE visible
20 Nov 3.2 17:53:02 10° NW 17:54:32 12° NNW 17:56:04 10° N visible
26 Nov 3.0 18:33:12 10° N 18:34:32 11° NNE 18:34:39 11° NNE visible
